Flag for Martinique Weather past 2 weeks in Fort-de-France, Martinique

Now
84 °F

Partly sunny.


Feels Like: 91 °F
Forecast: N/A
Wind: 15 mph from East

Location: Le Lamentin Airport

Current Time: Aug 2, 2015 at 4:41:03 PM

Latest Report: Aug 2, 2015 at 4:00 PM


Visibility: N/A

Pressure: 29.92 "Hg

Humidity: 70%

Dew point: 73 °F

Location of Fort-de-FranceLocation

Historic Weather in Fort-de-France — Graph

°F

Fort-de-France temperature yesterday

Maximum temperature yesterday: 88 °F (at 12:00 PM)
Minimum temperature yesterday: 77 °F (at 10:30 PM)
Average temperature yesterday: 82 °F

Past Weeks' High & Low Weather Summary

 TemperatureHumidityPressure
High88 °F (Jul 19, 12:00 PM)94% (Jul 22, 12:30 AM)30.07 "Hg (Jul 22, 12:30 AM)
Low75 °F (Jul 19, 2:30 AM)52% (Jul 19, 12:30 PM)29.92 "Hg (Jul 20, 4:00 PM)
Average82 °F75%30.00 "Hg
* Reported Jul 18 3:00 PM — Aug 2 3:30 PM, Fort-de-France, Weather by CustomWeather, © 2015

Note: Actual official high and low records may vary slightly from our data, if they occured in-between our weather recording intervals... More about our weather records

Advertising

Fort-de-France weather history for previous 24 hours

 ConditionsComfort  
Time TempWeatherWind HumidityBarometerVisibility
3:30 PM
Sun, Aug 2
84 °FBroken clouds.15 mph74%29.92 "HgN/A
3:00 PM81 °FFog.10 mph89%29.92 "Hg3 mi
2:30 PM81 °FLight rain. Broken clouds.18 mph84%29.92 "Hg5 mi
2:00 PM86 °FBroken clouds.15 mph70%29.92 "HgN/A
1:30 PM86 °FPartly sunny.14 mph70%29.95 "HgN/A
1:00 PM86 °FBroken clouds.14 mph70%29.95 "HgN/A
12:30 PM82 °FLight rain. Broken clouds.17 mph79%29.95 "HgN/A
12:00 PM88 °FPartly sunny.15 mph62%29.95 "HgN/A
11:30 AM88 °FBroken clouds.16 mph66%29.95 "HgN/A
11:00 AM88 °FScattered clouds.16 mph62%29.95 "HgN/A
10:30 AM86 °FPartly sunny.13 mph70%29.98 "HgN/A
10:00 AM86 °FPartly sunny.15 mph66%29.95 "Hg6 mi
9:30 AM84 °FFog.10 mph74%29.95 "Hg3 mi
9:00 AM82 °FFog.8 mph84%29.98 "Hg2 mi
8:30 AM81 °FLight rain. Broken clouds.10 mph84%29.95 "HgN/A
8:00 AM84 °FScattered clouds.7 mph74%29.95 "HgN/A
7:30 AM81 °FScattered clouds.5 mph84%29.95 "HgN/A
7:00 AM79 °FPassing clouds.6 mph89%29.95 "HgN/A
6:30 AM75 °FPassing clouds.3 mph94%29.92 "HgN/A
6:00 AM75 °FPassing clouds.3 mph94%29.92 "HgN/A
5:30 AM75 °FClear.5 mph94%29.92 "HgN/A
5:00 AM75 °FClear.5 mph94%29.92 "HgN/A
4:30 AM75 °FClear.5 mph94%29.92 "HgN/A
4:00 AM77 °FPassing clouds.6 mph89%29.92 "HgN/A
3:30 AM75 °FPartly cloudy.2 mph94%29.92 "HgN/A
3:00 AM75 °FOvercast.5 mph89%29.92 "HgN/A
2:30 AM77 °FMostly cloudy.9 mph89%29.92 "HgN/A
2:00 AM77 °FLight rain. Fog.14 mph89%29.92 "Hg2 mi
1:30 AM79 °FMostly cloudy.3 mph84%29.92 "HgN/A
1:00 AM79 °FClear.5 mph84%29.92 "HgN/A
12:30 AM79 °FPassing clouds.2 mph84%29.95 "HgN/A
12:00 AM79 °FPassing clouds.2 mph84%29.95 "HgN/A
11:30 PM
Sat, Aug 1
79 °FPartly cloudy.2 mph79%29.95 "HgN/A
11:00 PM79 °FClear.3 mph79%29.95 "HgN/A
10:30 PM77 °FPassing clouds.3 mph83%29.95 "HgN/A
10:00 PM79 °FClear.3 mph79%29.98 "HgN/A
9:30 PM79 °FPassing clouds.5 mph79%29.95 "HgN/A
9:00 PM79 °FPassing clouds.3 mph79%29.95 "HgN/A
8:30 PM79 °FPassing clouds.3 mph79%29.95 "HgN/A
8:00 PM79 °FPassing clouds.6 mph79%29.95 "HgN/A
7:30 PM79 °FPassing clouds.6 mph79%29.95 "HgN/A
7:00 PM79 °FClear.7 mph79%29.92 "HgN/A
6:00 PM82 °FScattered clouds.10 mph70%29.92 "HgN/A
5:30 PM84 °FPartly sunny.12 mph66%29.92 "HgN/A
5:00 PM84 °FPartly sunny.10 mph66%29.92 "HgN/A
4:30 PM86 °FScattered clouds.13 mph59%29.92 "HgN/A
4:00 PM86 °FPassing clouds.14 mph59%29.92 "HgN/A
Weather by CustomWeather, © 2015

See weather overviewHow to use our weather pages